Zurück zum Katalog

STARLINK-34545

AktivKommunikationVLEO
NORAD 65105·PAYLOAD·🇺🇸 United States

Gestartet Aug 4, 2025 von Cape Canaveral Space Force Station

Loading…

Nächste Überflüge (nächste 24 Stunden)

TLE

AktuellSource: CelesTrak SupGP

Epoche: Sep 15, 2026, 02:49 UTC

1 65105C 25167AD  26258.11784722 -.00063611  00000+0 -18793-2 0  2589
2 65105  53.1574 219.0431 0001365  91.0660 174.7776 15.34423416    14

Verfolge STARLINK-34545 in Echtzeit mit AllMySat

Download on the App Store